Regional Weather Roundup
Issued by NWS Boston, MA

Home | Current Version | Previous Version | Text Only | Print | Product List | Glossary On
Versions: 1 2 3 4 5 6 7 8 9 10 11 12 13 14 15 16 17 18 19 20 21 22 23 24 25 26 27 28 29 30 31 32 33 34 35 36 37 38 39 40 41 42 43 44 45 46 47 48 49 50
000
ASUS41 KBOX 220700
RWRBOX

REGIONAL WEATHER ROUNDUP
NATIONAL WEATHER SERVICE BOSTON/NORTON MA
300 AM EDT TUE OCT 22 2019

NOTE:  "FAIR" INDICATES FEW OR NO CLOUDS BELOW 12,000 FEET WITH NO
SIGNIFICANT WEATHER AND/OR OBSTRUCTIONS TO VISIBILITY.

MAZALL-220800-
EASTERN MASSACHUSETTS

CITY           SKY/WX    TMP DP  RH WIND       PRES   REMARKS
BOSTON         FAIR      51  46  83 N6        30.16S
BEVERLY        FOG       47  45  93 N3        30.16R VSB 1/4
LAWRENCE       FAIR      45  43  93 N3        30.19R
BEDFORD        CLOUDY    46  40  79 CALM      30.16S
BLUE HILL      NOT AVBL
NORWOOD        MOCLDY    41  36  82 CALM      30.15S
MARSHFIELD     NOT AVBL
PLYMOUTH       FAIR      51  49  92 NE7       30.13F
TAUNTON        FAIR      39  37  92 CALM      30.13F
NEW BEDFORD    FAIR      49  47  93 N7        30.11F
$$

MAZALL-220800-
CAPE COD AND THE ISLANDS

CITY           SKY/WX    TMP DP  RH WIND       PRES   REMARKS
FALMOUTH       CLEAR     50  50 100 NE8       30.12F
HYANNIS        NOT AVBL
CHATHAM        NOT AVBL
PROVINCETOWN   FAIR      54  51  90 NE8         N/A
NANTUCKET      FAIR      54  52  93 NE13      30.09F
MARTHAS VNYRD  FAIR      54  52  93 NE10      30.09F
$$

MAZALL-220800-
CENTRAL AND WESTERN MASSACHUSETTS

CITY           SKY/WX    TMP DP  RH WIND       PRES   REMARKS
WORCESTER      FAIR      47  43  86 N8        30.15S
FITCHBURG      FAIR      42  40  92 N3        30.18S
ORANGE         FAIR      41  39  93 CALM      30.17S
SPRINGFIELD    NOT AVBL
WESTFIELD      FAIR      44  42  93 CALM      30.14F
NORTH ADAMS    FAIR      53  43  68 E12G18    30.11F
PITTSFIELD     FAIR      45  42  89 CALM      30.11F
$$

RIZALL-220800-
RHODE ISLAND

CITY           SKY/WX    TMP DP  RH WIND       PRES   REMARKS
PROVIDENCE     FAIR      48  46  93 N5        30.15S
NEWPORT        FAIR      50  47  89 N5        30.12F
BLOCK ISLAND   CLOUDY    54  51  90 NE9       30.12F
SMITHFIELD     CLOUDY   N/A N/A N/A N6        30.15R FOG
WESTERLY       FAIR      50  48  93 N3        30.13F
$$

CTZALL-220800-
CONNECTICUT

CITY           SKY/WX    TMP DP  RH WIND       PRES   REMARKS
BRADLEY INTL   MOCLDY    46  43  89 N5        30.14F
HARTFORD       FAIR      47  45  93 NE6       30.13F
BRIDGEPORT     FAIR      52  42  69 N5        30.12F
DANBURY        FAIR      46  45  96 CALM      30.13F
GROTON         NOT AVBL
NEW HAVEN      FAIR      52  42  69 N6        30.11F
CHESTER        FAIR      50  39  66 CALM      30.12F
MERIDEN        FAIR      46  44  93 CALM      30.13F
WILLIMANTIC    FAIR      44  42  93 CALM      30.15F
OXFORD         FAIR      49  43  80 NE9       30.12F
$$

MEZ002-015-021-024-NHZ003-005-008-011-012-014-VTZ005-008-220800-
NORTHERN NEW ENGLAND

CITY           SKY/WX    TMP DP  RH WIND       PRES   REMARKS
PORTLAND ME    FAIR      41  38  89 CALM      30.19S
BANGOR ME      FAIR      38  37  97 N3        30.21F
CONCORD NH     FOG       40  39  97 CALM      30.19R VSB 1/4
MANCHESTER NH  MOCLDY    44  41  89 N3        30.17S
NASHUA NH      FAIR      42  42 100 NW7       30.19R
PORTSMOUTH NH  NOT AVBL
JAFFREY NH     FAIR      40  38  93 CALM      30.17R
KEENE NH       MOCLDY    41  41 100 CALM      30.17F FOG
BURLINGTON VT  FAIR      45  42  89 SE6       30.08F
MT. WASHINGTON NOT AVBL
$$

NYZ052-076-220800-
EASTERN NEW YORK

CITY           SKY/WX    TMP DP  RH WIND       PRES   REMARKS
ALBANY         MOCLDY    43  39  86 S3        30.11F
NEW YORK CITY  MOCLDY    57  40  52 E7        30.10S
$$

ANZALL-220800-
MARINE OBSERVATIONS

STATION/POSITION TIME  TEMP    WIND        PRES    VSBY  WAVE
                       AIR SEA DIR/SP/G                  HT/PER
                 (UTC) (F)     (DEG/KT/KT) (MB)    (MI)  (FT/S)
BOSTON BUOY      0550   55 57   50/  8/ 10 1020.7          3/ 6
BUZZARDS BAY     0600   55      50/ 17/ 18 1020.2F
NANTUCKET SOUND  0640      56              1019.5
MASS BAY-STELLWA 0604   55 56   40/ 10/ 12 1021.2R  1 7/8  4/11
ISLE OF SHOALS   0600   52      20/  9/ 10 1021.6R
S OF BLOCK IS    0630      60                N/A           6/ 8
$$

......................KEY.........................
  SKY/WX - SKY CONDITION/PRESENT WEATHER
  TMP    - TEMPERATURE IN FAHRENHEIT
  DWPT   - DEWPOINT IN FAHRENHEIT
  RH     - RELATIVE HUMIDITY IN PERCENT
  WIND   - DIRECTION AND SPEED IN MPH
  PRES   - MEAN SEA LEVEL PRESSURE IN INCHES OF HG
  WCI    - WIND CHILL INDEX
  VSB    - VISIBILITY IN MILES
  HX     - HEAT INDEX
  TC     - TEMPERATURE IN CELSIUS
  VRB    - VARIABLE WIND DIRECTION
  N/A    - NOT AVAILABLE



USA.gov is the U.S. government's official web portal to all federal, state and local government web resources and services.